Year,Month,Day,Hour,Minute,Value (Times are PST for temperature in C)
2009,03,18,00,00,0.30
2009,03,18,00,01,0.30
2009,03,18,00,02,0.30
2009,03,18,00,03,0.30
2009,03,18,00,04,0.30
2009,03,18,00,05,0.30
2009,03,18,00,06,0.30
2009,03,18,00,07,0.40
2009,03,18,00,08,0.40
2009,03,18,00,09,0.40
2009,03,18,00,10,0.40
2009,03,18,00,11,0.40
2009,03,18,00,12,0.40
2009,03,18,00,13,0.40
2009,03,18,00,14,0.40
2009,03,18,00,15,0.40
2009,03,18,00,16,0.40
2009,03,18,00,17,0.40
2009,03,18,00,18,0.40
2009,03,18,00,19,0.40
2009,03,18,00,20,0.40
2009,03,18,00,21,0.40
2009,03,18,00,22,0.40
2009,03,18,00,23,0.40
2009,03,18,00,24,0.40
2009,03,18,00,25,0.40
2009,03,18,00,26,0.30
2009,03,18,00,27,0.30
2009,03,18,00,28,0.30
2009,03,18,00,29,0.30
2009,03,18,00,30,0.30
2009,03,18,00,31,0.30
2009,03,18,00,32,0.30
2009,03,18,00,33,0.30
2009,03,18,00,34,0.40
2009,03,18,00,35,0.40
2009,03,18,00,36,0.40
2009,03,18,00,37,0.40
2009,03,18,00,38,0.40
2009,03,18,00,39,0.50
2009,03,18,00,40,0.50
2009,03,18,00,41,0.50
2009,03,18,00,42,0.50
2009,03,18,00,43,0.50
2009,03,18,00,44,0.50
2009,03,18,00,45,0.50
2009,03,18,00,46,0.50
2009,03,18,00,47,0.50
2009,03,18,00,48,0.50
2009,03,18,00,49,0.50
2009,03,18,00,50,0.50
2009,03,18,00,51,0.50
2009,03,18,00,52,0.50
2009,03,18,00,53,0.50
2009,03,18,00,54,0.50
2009,03,18,00,55,0.50
2009,03,18,00,56,0.50
2009,03,18,00,57,0.50
2009,03,18,00,58,0.50
2009,03,18,00,59,0.40
2009,03,18,01,00,0.40
2009,03,18,01,01,0.50
2009,03,18,01,02,0.40
2009,03,18,01,03,0.40
2009,03,18,01,04,0.40
2009,03,18,01,05,0.40
2009,03,18,01,06,0.40
2009,03,18,01,07,0.40
2009,03,18,01,08,0.40
2009,03,18,01,09,0.40
2009,03,18,01,10,0.40
2009,03,18,01,11,0.40
2009,03,18,01,12,0.40
2009,03,18,01,13,0.40
2009,03,18,01,14,0.40
2009,03,18,01,15,0.40
2009,03,18,01,16,0.40
2009,03,18,01,17,0.40
2009,03,18,01,18,0.40
2009,03,18,01,19,0.40
2009,03,18,01,20,0.40
2009,03,18,01,21,0.40
2009,03,18,01,22,0.40
2009,03,18,01,23,0.40
2009,03,18,01,24,0.40
2009,03,18,01,25,0.40
2009,03,18,01,26,0.40
2009,03,18,01,27,0.40
2009,03,18,01,28,0.30
2009,03,18,01,29,0.30
2009,03,18,01,30,0.30
2009,03,18,01,31,0.30
2009,03,18,01,32,0.40
2009,03,18,01,33,0.40
2009,03,18,01,34,0.40
2009,03,18,01,35,0.40
2009,03,18,01,36,0.40
2009,03,18,01,37,0.40
2009,03,18,01,38,0.40
2009,03,18,01,39,0.40
2009,03,18,01,40,0.40
2009,03,18,01,41,0.40
2009,03,18,01,42,0.40
2009,03,18,01,43,0.40
2009,03,18,01,44,0.40
2009,03,18,01,45,0.50
2009,03,18,01,46,0.50
2009,03,18,01,47,0.40
2009,03,18,01,48,0.50
2009,03,18,01,49,0.50
2009,03,18,01,50,0.40
2009,03,18,01,51,0.40
2009,03,18,01,52,0.40
2009,03,18,01,53,0.40
2009,03,18,01,54,0.40
2009,03,18,01,55,0.40
2009,03,18,01,56,0.40
2009,03,18,01,57,0.40
2009,03,18,01,58,0.40
2009,03,18,01,59,0.40
2009,03,18,02,00,0.40
2009,03,18,02,01,0.40
2009,03,18,02,02,0.40
2009,03,18,02,03,0.40
2009,03,18,02,04,0.40
2009,03,18,02,05,0.40
2009,03,18,02,06,0.50
2009,03,18,02,07,0.50
2009,03,18,02,08,0.50
2009,03,18,02,09,0.50
2009,03,18,02,10,0.60
2009,03,18,02,11,0.60
2009,03,18,02,12,0.60
2009,03,18,02,13,0.60
2009,03,18,02,14,0.60
2009,03,18,02,15,0.60
2009,03,18,02,16,0.60
2009,03,18,02,17,0.60
2009,03,18,02,18,0.60
2009,03,18,02,19,0.60
2009,03,18,02,20,0.60
2009,03,18,02,21,0.60
2009,03,18,02,22,0.60
2009,03,18,02,23,0.60
2009,03,18,02,24,0.60
2009,03,18,02,25,0.60
2009,03,18,02,26,0.60
2009,03,18,02,27,0.60
2009,03,18,02,28,0.60
2009,03,18,02,29,0.60
2009,03,18,02,30,0.60
2009,03,18,02,31,0.60
2009,03,18,02,32,0.60
2009,03,18,02,33,0.60
2009,03,18,02,34,0.60
2009,03,18,02,35,0.60
2009,03,18,02,36,0.70
2009,03,18,02,37,0.70
2009,03,18,02,38,0.70
2009,03,18,02,39,0.70
2009,03,18,02,40,0.70
2009,03,18,02,41,0.70
2009,03,18,02,42,0.70
2009,03,18,02,43,0.70
2009,03,18,02,44,0.70
2009,03,18,02,45,0.70
2009,03,18,02,46,0.70
2009,03,18,02,47,0.80
2009,03,18,02,48,0.80
2009,03,18,02,49,0.80
2009,03,18,02,50,0.90
2009,03,18,02,51,0.90
2009,03,18,02,52,0.90
2009,03,18,02,53,0.90
2009,03,18,02,54,1.00
2009,03,18,02,55,1.00
2009,03,18,02,56,1.10
2009,03,18,02,57,1.10
2009,03,18,02,58,1.10
2009,03,18,02,59,1.10
2009,03,18,03,00,1.20
2009,03,18,03,01,1.20
2009,03,18,03,02,1.30
2009,03,18,03,03,1.30
2009,03,18,03,04,1.30
2009,03,18,03,05,1.30
2009,03,18,03,06,1.30
2009,03,18,03,07,1.30
2009,03,18,03,08,1.20
2009,03,18,03,09,1.20
2009,03,18,03,10,1.20
2009,03,18,03,11,1.10
2009,03,18,03,12,1.10
2009,03,18,03,13,1.10
2009,03,18,03,14,1.10
2009,03,18,03,15,1.10
2009,03,18,03,16,1.10
2009,03,18,03,17,1.10
2009,03,18,03,18,1.10
2009,03,18,03,19,1.10
2009,03,18,03,20,1.10
2009,03,18,03,21,1.00
2009,03,18,03,22,1.00
2009,03,18,03,23,1.10
2009,03,18,03,24,1.10
2009,03,18,03,25,1.10
2009,03,18,03,26,1.10
2009,03,18,03,27,1.10
2009,03,18,03,28,1.10
2009,03,18,03,29,1.20
2009,03,18,03,30,1.20
2009,03,18,03,31,1.20
2009,03,18,03,32,1.30
2009,03,18,03,33,1.30
2009,03,18,03,34,1.30
2009,03,18,03,35,1.30
2009,03,18,03,36,1.30
2009,03,18,03,37,1.30
2009,03,18,03,38,1.30
2009,03,18,03,39,1.30
2009,03,18,03,40,1.30
2009,03,18,03,41,1.30
2009,03,18,03,42,1.30
2009,03,18,03,43,1.30
2009,03,18,03,44,1.30
2009,03,18,03,45,1.30
2009,03,18,03,46,1.40
2009,03,18,03,47,1.40
2009,03,18,03,48,1.40
2009,03,18,03,49,1.50
2009,03,18,03,50,1.50
2009,03,18,03,51,1.60
2009,03,18,03,52,1.60
2009,03,18,03,53,1.60
2009,03,18,03,54,1.60
2009,03,18,03,55,1.60
2009,03,18,03,56,1.60
2009,03,18,03,57,1.60
2009,03,18,03,58,1.60
2009,03,18,03,59,1.60
2009,03,18,04,00,1.50
2009,03,18,04,01,1.50
2009,03,18,04,02,1.50
2009,03,18,04,03,1.50
2009,03,18,04,04,1.50
2009,03,18,04,05,1.50
2009,03,18,04,06,1.50
2009,03,18,04,07,1.50
2009,03,18,04,08,1.50
2009,03,18,04,09,1.50
2009,03,18,04,10,1.60
2009,03,18,04,11,1.60
2009,03,18,04,12,1.60
2009,03,18,04,13,1.60
2009,03,18,04,14,1.60
2009,03,18,04,15,1.70
2009,03,18,04,16,1.70
2009,03,18,04,17,1.70
2009,03,18,04,18,1.70
2009,03,18,04,19,1.70
2009,03,18,04,20,1.80
2009,03,18,04,21,1.80
2009,03,18,04,22,1.90
2009,03,18,04,23,1.90
2009,03,18,04,24,1.90
2009,03,18,04,25,1.90
2009,03,18,04,26,2.00
2009,03,18,04,27,2.00
2009,03,18,04,28,2.00
2009,03,18,04,29,2.10
2009,03,18,04,30,2.10
2009,03,18,04,31,2.10
2009,03,18,04,32,2.10
2009,03,18,04,33,2.10
2009,03,18,04,34,2.10
2009,03,18,04,35,2.10
2009,03,18,04,36,2.10
2009,03,18,04,37,2.10
2009,03,18,04,38,2.20
2009,03,18,04,39,2.20
2009,03,18,04,40,2.20
2009,03,18,04,41,2.20
2009,03,18,04,42,2.20
2009,03,18,04,43,2.20
2009,03,18,04,44,2.20
2009,03,18,04,45,2.20
2009,03,18,04,46,2.20
2009,03,18,04,47,2.20
2009,03,18,04,48,2.20
2009,03,18,04,49,2.20
2009,03,18,04,50,2.20
2009,03,18,04,51,2.30
2009,03,18,04,52,2.30
2009,03,18,04,53,2.30
2009,03,18,04,54,2.30
2009,03,18,04,55,2.30
2009,03,18,04,56,2.30
2009,03,18,04,57,2.30
2009,03,18,04,58,2.30
2009,03,18,04,59,2.40
2009,03,18,05,00,2.40
2009,03,18,05,01,2.40
2009,03,18,05,02,2.40
2009,03,18,05,03,2.40
2009,03,18,05,04,2.40
2009,03,18,05,05,2.40
2009,03,18,05,06,2.40
2009,03,18,05,07,2.40
2009,03,18,05,08,2.40
2009,03,18,05,09,2.40
2009,03,18,05,10,2.40
2009,03,18,05,11,2.40
2009,03,18,05,12,2.40
2009,03,18,05,13,2.40
2009,03,18,05,14,2.40
2009,03,18,05,15,2.40
2009,03,18,05,16,2.40
2009,03,18,05,17,2.40
2009,03,18,05,18,2.40
2009,03,18,05,19,2.40
2009,03,18,05,20,2.40
2009,03,18,05,21,2.40
2009,03,18,05,22,2.40
2009,03,18,05,23,2.40
2009,03,18,05,24,2.40
2009,03,18,05,25,2.40
2009,03,18,05,26,2.40
2009,03,18,05,27,2.40
2009,03,18,05,28,2.40
2009,03,18,05,29,2.40
2009,03,18,05,30,2.40
2009,03,18,05,31,2.40
2009,03,18,05,32,2.40
2009,03,18,05,33,2.40
2009,03,18,05,34,2.40
2009,03,18,05,35,2.40
2009,03,18,05,36,2.40
2009,03,18,05,37,2.40
2009,03,18,05,38,2.40
2009,03,18,05,39,2.40
2009,03,18,05,40,2.40
2009,03,18,05,41,2.40
2009,03,18,05,42,2.40
2009,03,18,05,43,2.40
2009,03,18,05,44,2.40
2009,03,18,05,45,2.40
2009,03,18,05,46,2.50
2009,03,18,05,47,2.50
2009,03,18,05,48,2.50
2009,03,18,05,49,2.60
2009,03,18,05,50,2.60
2009,03,18,05,51,2.60
2009,03,18,05,52,2.60
2009,03,18,05,53,2.70
2009,03,18,05,54,2.70
2009,03,18,05,55,2.70
2009,03,18,05,56,2.70
2009,03,18,05,57,2.80
2009,03,18,05,58,2.80
2009,03,18,05,59,2.80
2009,03,18,06,00,2.80
2009,03,18,06,01,2.80
2009,03,18,06,02,2.90
2009,03,18,06,03,2.90
2009,03,18,06,04,2.90
2009,03,18,06,05,2.90
2009,03,18,06,06,3.00
2009,03,18,06,07,3.00
2009,03,18,06,08,3.00
2009,03,18,06,09,3.00
2009,03,18,06,10,3.10
2009,03,18,06,11,3.10
2009,03,18,06,12,3.10
2009,03,18,06,13,3.10
2009,03,18,06,14,3.10
2009,03,18,06,15,3.10
2009,03,18,06,16,3.10
2009,03,18,06,17,3.10
2009,03,18,06,18,3.10
2009,03,18,06,19,3.10
2009,03,18,06,20,3.10
2009,03,18,06,21,3.10
2009,03,18,06,22,3.10
2009,03,18,06,23,3.10
2009,03,18,06,24,3.20
2009,03,18,06,25,3.20
2009,03,18,06,26,3.20
2009,03,18,06,27,3.20
2009,03,18,06,28,3.20
2009,03,18,06,29,3.20
2009,03,18,06,30,3.20
2009,03,18,06,31,3.20
2009,03,18,06,32,3.20
2009,03,18,06,33,3.20
2009,03,18,06,34,3.20
2009,03,18,06,35,3.20
2009,03,18,06,36,3.20
2009,03,18,06,37,3.20
2009,03,18,06,38,3.20
2009,03,18,06,39,3.20
2009,03,18,06,40,3.20
2009,03,18,06,41,3.20
2009,03,18,06,42,3.20
2009,03,18,06,43,3.20
2009,03,18,06,44,3.20
2009,03,18,06,45,3.30
2009,03,18,06,46,3.30
2009,03,18,06,47,3.30
2009,03,18,06,48,3.30
2009,03,18,06,49,3.30
2009,03,18,06,50,3.30
2009,03,18,06,51,3.30
2009,03,18,06,52,3.30
2009,03,18,06,53,3.30
2009,03,18,06,54,3.30
2009,03,18,06,55,3.30
2009,03,18,06,56,3.30
2009,03,18,06,57,3.30
2009,03,18,06,58,3.30
2009,03,18,06,59,3.30
2009,03,18,07,00,3.30
2009,03,18,07,01,3.30
2009,03,18,07,02,3.30
2009,03,18,07,03,3.30
2009,03,18,07,04,3.30
2009,03,18,07,05,3.30
2009,03,18,07,06,3.30
2009,03,18,07,07,3.30
2009,03,18,07,08,3.30
2009,03,18,07,09,3.30
2009,03,18,07,10,3.30
2009,03,18,07,11,3.30
2009,03,18,07,12,3.30
2009,03,18,07,13,3.30
2009,03,18,07,14,3.30
2009,03,18,07,15,3.30
2009,03,18,07,16,3.30
2009,03,18,07,17,3.30
2009,03,18,07,18,3.30
2009,03,18,07,19,3.30
2009,03,18,07,20,3.30
2009,03,18,07,21,3.30
2009,03,18,07,22,3.30
2009,03,18,07,23,3.30
2009,03,18,07,24,3.30
2009,03,18,07,25,3.30
2009,03,18,07,26,3.30
2009,03,18,07,27,3.30
2009,03,18,07,28,3.30
2009,03,18,07,29,3.30
2009,03,18,07,30,3.30
2009,03,18,07,31,3.40
2009,03,18,07,32,3.30
2009,03,18,07,33,3.40
2009,03,18,07,34,3.40
2009,03,18,07,35,3.40
2009,03,18,07,36,3.40
2009,03,18,07,37,3.40
2009,03,18,07,38,3.40
2009,03,18,07,39,3.40
2009,03,18,07,40,3.40
2009,03,18,07,41,3.40
2009,03,18,07,42,3.40
2009,03,18,07,43,3.40
2009,03,18,07,44,3.40
2009,03,18,07,45,3.40
2009,03,18,07,46,3.40
2009,03,18,07,47,3.40
2009,03,18,07,48,3.40
2009,03,18,07,49,3.40
2009,03,18,07,50,3.40
2009,03,18,07,51,3.40
2009,03,18,07,52,3.40
2009,03,18,07,53,3.40
2009,03,18,07,54,3.40
2009,03,18,07,55,3.40
2009,03,18,07,56,3.40
2009,03,18,07,57,3.40
2009,03,18,07,58,3.40
2009,03,18,07,59,3.40
2009,03,18,08,00,3.40
2009,03,18,08,01,3.40
2009,03,18,08,02,3.40
2009,03,18,08,03,3.40
2009,03,18,08,04,3.40
2009,03,18,08,05,3.40
2009,03,18,08,06,3.40
2009,03,18,08,07,3.40
2009,03,18,08,08,3.40
2009,03,18,08,09,3.40
2009,03,18,08,10,3.40
2009,03,18,08,11,3.40
2009,03,18,08,12,3.40
2009,03,18,08,13,3.40
2009,03,18,08,14,3.40
2009,03,18,08,15,3.40
2009,03,18,08,16,3.40
2009,03,18,08,17,3.40
2009,03,18,08,18,3.40
2009,03,18,08,19,3.40
2009,03,18,08,20,3.40
2009,03,18,08,21,3.40
2009,03,18,08,22,3.40
2009,03,18,08,23,3.40
2009,03,18,08,24,3.50
2009,03,18,08,25,3.50
2009,03,18,08,26,3.50
2009,03,18,08,27,3.50
2009,03,18,08,28,3.50
2009,03,18,08,29,3.50
2009,03,18,08,30,3.50
2009,03,18,08,31,3.50
2009,03,18,08,32,3.50
2009,03,18,08,33,3.50
2009,03,18,08,34,3.50
2009,03,18,08,35,3.60
2009,03,18,08,36,3.60
2009,03,18,08,37,3.60
2009,03,18,08,38,3.60
2009,03,18,08,39,3.60
2009,03,18,08,40,3.60
2009,03,18,08,41,3.60
2009,03,18,08,42,3.60
2009,03,18,08,43,3.60
2009,03,18,08,44,3.60
2009,03,18,08,45,3.60
2009,03,18,08,46,3.60
2009,03,18,08,47,3.60
2009,03,18,08,48,3.60
2009,03,18,08,49,3.60
2009,03,18,08,50,3.70
2009,03,18,08,51,3.70
2009,03,18,08,52,3.70
2009,03,18,08,53,3.70
2009,03,18,08,54,3.70
2009,03,18,08,55,3.70
2009,03,18,08,56,3.70
2009,03,18,08,57,3.70
2009,03,18,08,58,3.70
2009,03,18,08,59,3.70
2009,03,18,09,00,3.80
2009,03,18,09,01,3.80
2009,03,18,09,02,3.80
2009,03,18,09,03,3.80
2009,03,18,09,04,3.80
2009,03,18,09,05,3.80
2009,03,18,09,06,3.80
2009,03,18,09,07,3.80
2009,03,18,09,08,3.80
2009,03,18,09,09,3.80
2009,03,18,09,10,3.80
2009,03,18,09,11,3.80
2009,03,18,09,12,3.80
2009,03,18,09,13,3.80
2009,03,18,09,14,3.80
2009,03,18,09,15,3.80
2009,03,18,09,16,3.80
2009,03,18,09,17,3.80
2009,03,18,09,18,3.80
2009,03,18,09,19,3.80
2009,03,18,09,20,3.80
2009,03,18,09,21,3.80
2009,03,18,09,22,3.90
2009,03,18,09,23,3.90
2009,03,18,09,24,3.90
2009,03,18,09,25,3.90
2009,03,18,09,26,3.90
2009,03,18,09,27,3.90
2009,03,18,09,28,3.90
2009,03,18,09,29,3.90
2009,03,18,09,30,3.90
2009,03,18,09,31,3.90
2009,03,18,09,32,3.90
2009,03,18,09,33,3.90
2009,03,18,09,34,3.90
2009,03,18,09,35,3.90
2009,03,18,09,36,4.00
2009,03,18,09,37,4.00
2009,03,18,09,38,4.00
2009,03,18,09,39,4.00
2009,03,18,09,40,4.00
2009,03,18,09,41,4.00
2009,03,18,09,42,4.10
2009,03,18,09,43,4.10
2009,03,18,09,44,4.10
2009,03,18,09,45,4.10
2009,03,18,09,46,4.10
2009,03,18,09,47,4.10
2009,03,18,09,48,4.10
2009,03,18,09,49,4.10
2009,03,18,09,50,4.10
2009,03,18,09,51,4.10
2009,03,18,09,52,4.10
2009,03,18,09,53,4.10
2009,03,18,09,54,4.10
2009,03,18,09,55,4.20
2009,03,18,09,56,4.20
2009,03,18,09,57,4.10
2009,03,18,09,58,4.10
2009,03,18,09,59,4.20
2009,03,18,10,00,4.20
2009,03,18,10,01,4.20
2009,03,18,10,02,4.20
2009,03,18,10,03,4.20
2009,03,18,10,04,4.20
2009,03,18,10,05,4.20
2009,03,18,10,06,4.20
2009,03,18,10,07,4.20
2009,03,18,10,08,4.20
2009,03,18,10,09,4.30
2009,03,18,10,10,4.30
2009,03,18,10,11,4.30
2009,03,18,10,12,4.30
2009,03,18,10,13,4.30
2009,03,18,10,14,4.30
2009,03,18,10,15,4.40
2009,03,18,10,16,4.40
2009,03,18,10,17,4.40
2009,03,18,10,18,4.50
2009,03,18,10,19,4.50
2009,03,18,10,20,4.60
2009,03,18,10,21,4.60
2009,03,18,10,22,4.60
2009,03,18,10,23,4.60
2009,03,18,10,24,4.70
2009,03,18,10,25,4.70
2009,03,18,10,26,4.70
2009,03,18,10,27,4.70
2009,03,18,10,28,4.70
2009,03,18,10,29,4.80
2009,03,18,10,30,4.80
2009,03,18,10,31,4.80
2009,03,18,10,32,4.80
2009,03,18,10,33,4.80
2009,03,18,10,34,4.80
2009,03,18,10,35,4.90
2009,03,18,10,36,4.90
2009,03,18,10,37,4.90
2009,03,18,10,38,4.90
2009,03,18,10,39,4.90
2009,03,18,10,40,5.00
2009,03,18,10,41,5.00
2009,03,18,10,42,5.00
2009,03,18,10,43,5.00
2009,03,18,10,44,5.00
2009,03,18,10,45,5.00
2009,03,18,10,46,5.00
2009,03,18,10,47,5.10
2009,03,18,10,48,5.10
2009,03,18,10,49,5.10
2009,03,18,10,50,5.10
2009,03,18,10,51,5.10
2009,03,18,10,52,5.10
2009,03,18,10,53,5.10
2009,03,18,10,54,5.20
2009,03,18,10,55,5.10
2009,03,18,10,56,5.20
2009,03,18,10,57,5.20
2009,03,18,10,58,5.20
2009,03,18,10,59,5.20
2009,03,18,11,00,5.20
2009,03,18,11,01,5.20
2009,03,18,11,02,5.20
2009,03,18,11,03,5.20
2009,03,18,11,04,5.20
2009,03,18,11,05,5.20
2009,03,18,11,06,5.30
2009,03,18,11,07,5.30
2009,03,18,11,08,5.30
2009,03,18,11,09,5.30
2009,03,18,11,10,5.30
2009,03,18,11,11,5.30
2009,03,18,11,12,5.30
2009,03,18,11,13,5.30
2009,03,18,11,14,5.30
2009,03,18,11,15,5.40
2009,03,18,11,16,5.40
2009,03,18,11,17,5.40
2009,03,18,11,18,5.40
2009,03,18,11,19,5.40
2009,03,18,11,20,5.40
2009,03,18,11,21,5.40
2009,03,18,11,22,5.50
2009,03,18,11,23,5.50
2009,03,18,11,24,5.50
2009,03,18,11,25,5.50
2009,03,18,11,26,5.50
2009,03,18,11,27,5.50
2009,03,18,11,28,5.50
2009,03,18,11,29,5.40
2009,03,18,11,30,5.40
2009,03,18,11,31,5.40
2009,03,18,11,32,5.40
2009,03,18,11,33,5.40
2009,03,18,11,34,5.40
2009,03,18,11,35,5.40
2009,03,18,11,36,5.40
2009,03,18,11,37,5.40
2009,03,18,11,38,5.50
2009,03,18,11,39,5.50
2009,03,18,11,40,5.60
2009,03,18,11,41,5.60
2009,03,18,11,42,5.60
2009,03,18,11,43,5.60
2009,03,18,11,44,5.60
2009,03,18,11,45,5.60
2009,03,18,11,46,5.70
2009,03,18,11,47,5.70
2009,03,18,11,48,5.70
2009,03,18,11,49,5.70
2009,03,18,11,50,5.70
2009,03,18,11,51,5.70
2009,03,18,11,52,5.70
2009,03,18,11,53,5.70
2009,03,18,11,54,5.70
2009,03,18,11,55,5.70
2009,03,18,11,56,5.70
2009,03,18,11,57,5.70
2009,03,18,11,58,5.70
2009,03,18,11,59,5.70
2009,03,18,12,00,5.70
2009,03,18,12,01,5.80
2009,03,18,12,02,5.70
2009,03,18,12,03,5.70
2009,03,18,12,04,5.70
2009,03,18,12,05,5.70
2009,03,18,12,06,5.70
2009,03,18,12,07,5.70
2009,03,18,12,08,5.70
2009,03,18,12,09,5.70
2009,03,18,12,10,5.70
2009,03,18,12,11,5.70
2009,03,18,12,12,5.70
2009,03,18,12,13,5.70
2009,03,18,12,14,5.70
2009,03,18,12,15,5.70
2009,03,18,12,16,5.70
2009,03,18,12,17,5.70
2009,03,18,12,18,5.70
2009,03,18,12,19,5.80
2009,03,18,12,20,5.80
2009,03,18,12,21,5.80
2009,03,18,12,22,5.80
2009,03,18,12,23,5.80
2009,03,18,12,24,5.80
2009,03,18,12,25,5.80
2009,03,18,12,26,5.80
2009,03,18,12,27,5.80
2009,03,18,12,28,5.80
2009,03,18,12,29,5.80
2009,03,18,12,30,5.80
2009,03,18,12,31,5.70
2009,03,18,12,32,5.80
2009,03,18,12,33,5.80
2009,03,18,12,34,5.80
2009,03,18,12,35,5.80
2009,03,18,12,36,5.80
2009,03,18,12,37,5.90
2009,03,18,12,38,5.90
2009,03,18,12,39,5.90
2009,03,18,12,40,5.90
2009,03,18,12,41,5.90
2009,03,18,12,42,5.80
2009,03,18,12,43,5.80
2009,03,18,12,44,5.80
2009,03,18,12,45,5.90
2009,03,18,12,46,5.90
2009,03,18,12,47,5.90
2009,03,18,12,48,5.90
2009,03,18,12,49,5.90
2009,03,18,12,50,5.90
2009,03,18,12,51,5.90
2009,03,18,12,52,5.90
2009,03,18,12,53,5.90
2009,03,18,12,54,5.90
2009,03,18,12,55,5.90
2009,03,18,12,56,5.90
2009,03,18,12,57,5.80
2009,03,18,12,58,5.80
2009,03,18,12,59,5.90
2009,03,18,13,00,5.90
2009,03,18,13,01,5.90
2009,03,18,13,02,5.90
2009,03,18,13,03,5.90
2009,03,18,13,04,5.90
2009,03,18,13,05,5.90
2009,03,18,13,06,5.90
2009,03,18,13,07,5.90
2009,03,18,13,08,6.00
2009,03,18,13,09,6.00
2009,03,18,13,10,6.00
2009,03,18,13,11,6.10
2009,03,18,13,12,6.10
2009,03,18,13,13,6.10
2009,03,18,13,14,6.10
2009,03,18,13,15,6.10
2009,03,18,13,16,6.10
2009,03,18,13,17,6.20
2009,03,18,13,18,6.20
2009,03,18,13,19,6.20
2009,03,18,13,20,6.20
2009,03,18,13,21,6.30
2009,03,18,13,22,6.30
2009,03,18,13,23,6.30
2009,03,18,13,24,6.30
2009,03,18,13,25,6.30
2009,03,18,13,26,6.30
2009,03,18,13,27,6.30
2009,03,18,13,28,6.30
2009,03,18,13,29,6.30
2009,03,18,13,30,6.30
2009,03,18,13,31,6.30
2009,03,18,13,32,6.30
2009,03,18,13,33,6.30
2009,03,18,13,34,6.30
2009,03,18,13,35,6.30
2009,03,18,13,36,6.30
2009,03,18,13,37,6.30
2009,03,18,13,38,6.40
2009,03,18,13,39,6.40
2009,03,18,13,40,6.40
2009,03,18,13,41,6.40
2009,03,18,13,42,6.50
2009,03,18,13,43,6.50
2009,03,18,13,44,6.50
2009,03,18,13,45,6.50
2009,03,18,13,46,6.60
2009,03,18,13,47,6.60
2009,03,18,13,48,6.60
2009,03,18,13,49,6.60
2009,03,18,13,50,6.70
2009,03,18,13,51,6.70
2009,03,18,13,52,6.70
2009,03,18,13,53,6.70
2009,03,18,13,54,6.70
2009,03,18,13,55,6.70
2009,03,18,13,56,6.80
2009,03,18,13,57,6.70
2009,03,18,13,58,6.70
2009,03,18,13,59,6.70
2009,03,18,14,00,6.70
2009,03,18,14,01,6.60
2009,03,18,14,02,6.60
2009,03,18,14,03,6.60
2009,03,18,14,04,6.60
2009,03,18,14,05,6.70
2009,03,18,14,06,6.70
2009,03,18,14,07,6.70
2009,03,18,14,08,6.70
2009,03,18,14,09,6.70
2009,03,18,14,10,6.80
2009,03,18,14,11,6.80
2009,03,18,14,12,6.80
2009,03,18,14,13,6.80
2009,03,18,14,14,6.80
2009,03,18,14,15,6.80
2009,03,18,14,16,6.80
2009,03,18,14,17,6.80
2009,03,18,14,18,6.80
2009,03,18,14,19,6.80
2009,03,18,14,20,6.80
2009,03,18,14,21,6.80
2009,03,18,14,22,6.80
2009,03,18,14,23,6.80
2009,03,18,14,24,6.80
2009,03,18,14,25,6.80
2009,03,18,14,26,6.80
2009,03,18,14,27,6.80
2009,03,18,14,28,6.90
2009,03,18,14,29,6.90
2009,03,18,14,30,7.00
2009,03,18,14,31,7.00
2009,03,18,14,32,7.10
2009,03,18,14,33,7.10
2009,03,18,14,34,7.10
2009,03,18,14,35,7.20
2009,03,18,14,36,7.20
2009,03,18,14,37,7.20
2009,03,18,14,38,7.20
2009,03,18,14,39,7.20
2009,03,18,14,40,7.20
2009,03,18,14,41,7.30
2009,03,18,14,42,7.30
2009,03,18,14,43,7.30
2009,03,18,14,44,7.30
2009,03,18,14,45,7.30
2009,03,18,14,46,7.30
2009,03,18,14,47,7.40
2009,03,18,14,48,7.40
2009,03,18,14,49,7.40
2009,03,18,14,50,7.50
2009,03,18,14,51,7.50
2009,03,18,14,52,7.50
2009,03,18,14,53,7.50
2009,03,18,14,54,7.40
2009,03,18,14,55,7.40
2009,03,18,14,56,7.30
2009,03,18,14,57,7.30
2009,03,18,14,58,7.30
2009,03,18,14,59,7.30
2009,03,18,15,00,7.30
2009,03,18,15,01,7.30
2009,03,18,15,02,7.30
2009,03,18,15,03,7.20
2009,03,18,15,04,7.20
2009,03,18,15,05,7.20
2009,03,18,15,06,7.20
2009,03,18,15,07,7.20
2009,03,18,15,08,7.20
2009,03,18,15,09,7.20
2009,03,18,15,10,7.20
2009,03,18,15,11,7.20
2009,03,18,15,12,7.20
2009,03,18,15,13,7.20
2009,03,18,15,14,7.20
2009,03,18,15,15,7.20
2009,03,18,15,16,7.20
2009,03,18,15,17,7.20
2009,03,18,15,18,7.30
2009,03,18,15,19,7.30
2009,03,18,15,20,7.30
2009,03,18,15,21,7.30
2009,03,18,15,22,7.30
2009,03,18,15,23,7.30
2009,03,18,15,24,7.40
2009,03,18,15,25,7.40
2009,03,18,15,26,7.40
2009,03,18,15,27,7.40
2009,03,18,15,28,7.40
2009,03,18,15,29,7.50
2009,03,18,15,30,7.50
2009,03,18,15,31,7.60
2009,03,18,15,32,7.60
2009,03,18,15,33,7.60
2009,03,18,15,34,7.70
2009,03,18,15,35,7.70
2009,03,18,15,36,7.70
2009,03,18,15,37,7.70
2009,03,18,15,38,7.70
2009,03,18,15,39,7.70
2009,03,18,15,40,7.80
2009,03,18,15,41,7.80
2009,03,18,15,42,7.80
2009,03,18,15,43,7.80
2009,03,18,15,44,7.90
2009,03,18,15,45,7.90
2009,03,18,15,46,7.90
2009,03,18,15,47,7.90
2009,03,18,15,48,7.90
2009,03,18,15,49,7.90
2009,03,18,15,50,8.00
2009,03,18,15,51,8.00
2009,03,18,15,52,8.00
2009,03,18,15,53,8.00
2009,03,18,15,54,8.10
2009,03,18,15,55,8.10
2009,03,18,15,56,8.10
2009,03,18,15,57,8.20
2009,03,18,15,58,8.20
2009,03,18,15,59,8.20
2009,03,18,16,00,8.20
2009,03,18,16,01,8.20
2009,03,18,16,02,8.20
2009,03,18,16,03,8.20
2009,03,18,16,04,8.20
2009,03,18,16,05,8.30
2009,03,18,16,06,8.30
2009,03,18,16,07,8.30
2009,03,18,16,08,8.30
2009,03,18,16,09,8.30
2009,03,18,16,10,8.30
2009,03,18,16,11,8.20
2009,03,18,16,12,8.20
2009,03,18,16,13,8.10
2009,03,18,16,14,8.10
2009,03,18,16,15,8.20
2009,03,18,16,16,8.20
2009,03,18,16,17,8.10
2009,03,18,16,18,8.10
2009,03,18,16,19,8.00
2009,03,18,16,20,8.00
2009,03,18,16,21,8.00
2009,03,18,16,22,8.00
2009,03,18,16,23,8.00
2009,03,18,16,24,8.00
2009,03,18,16,25,8.10
2009,03,18,16,26,8.00
2009,03,18,16,27,8.00
2009,03,18,16,28,8.00
2009,03,18,16,29,8.00
2009,03,18,16,30,8.00
2009,03,18,16,31,8.00
2009,03,18,16,32,8.00
2009,03,18,16,33,8.00
2009,03,18,16,34,8.00
2009,03,18,16,35,8.00
2009,03,18,16,36,8.10
2009,03,18,16,37,8.10
2009,03,18,16,38,8.10
2009,03,18,16,39,8.10
2009,03,18,16,40,8.10
2009,03,18,16,41,8.10
2009,03,18,16,42,8.10
2009,03,18,16,43,8.10
2009,03,18,16,44,8.10
2009,03,18,16,45,8.10
2009,03,18,16,46,8.10
2009,03,18,16,47,8.20
2009,03,18,16,48,8.10
2009,03,18,16,49,8.10
2009,03,18,16,50,8.10
2009,03,18,16,51,8.10
2009,03,18,16,52,8.10
2009,03,18,16,53,8.10
2009,03,18,16,54,8.10
2009,03,18,16,55,8.10
2009,03,18,16,56,8.10
2009,03,18,16,57,8.10
2009,03,18,16,58,8.10
2009,03,18,16,59,8.00
2009,03,18,17,00,8.10
2009,03,18,17,01,8.00
2009,03,18,17,02,8.00
2009,03,18,17,03,8.00
2009,03,18,17,04,7.90
2009,03,18,17,05,7.90
2009,03,18,17,06,7.90
2009,03,18,17,07,7.90
2009,03,18,17,08,7.90
2009,03,18,17,09,7.90
2009,03,18,17,10,7.90
2009,03,18,17,11,7.90
2009,03,18,17,12,7.90
2009,03,18,17,13,7.90
2009,03,18,17,14,8.00
2009,03,18,17,15,8.00
2009,03,18,17,16,8.10
2009,03,18,17,17,8.10
2009,03,18,17,18,8.10
2009,03,18,17,19,8.10
2009,03,18,17,20,8.10
2009,03,18,17,21,8.10
2009,03,18,17,22,8.10
2009,03,18,17,23,8.10
2009,03,18,17,24,8.10
2009,03,18,17,25,8.10
2009,03,18,17,26,8.10
2009,03,18,17,27,8.10
2009,03,18,17,28,8.20
2009,03,18,17,29,8.20
2009,03,18,17,30,8.20
2009,03,18,17,31,8.20
2009,03,18,17,32,8.30
2009,03,18,17,33,8.30
2009,03,18,17,34,8.30
2009,03,18,17,35,8.30
2009,03,18,17,36,8.30
2009,03,18,17,37,8.20
2009,03,18,17,38,8.20
2009,03,18,17,39,8.20
2009,03,18,17,40,8.20
2009,03,18,17,41,8.20
2009,03,18,17,42,8.20
2009,03,18,17,43,8.20
2009,03,18,17,44,8.20
2009,03,18,17,45,8.20
2009,03,18,17,46,8.30
2009,03,18,17,47,8.30
2009,03,18,17,48,8.30
2009,03,18,17,49,8.40
2009,03,18,17,50,8.40
2009,03,18,17,51,8.30
2009,03,18,17,52,8.30
2009,03,18,17,53,8.30
2009,03,18,17,54,8.30
2009,03,18,17,55,8.30
2009,03,18,17,56,8.30
2009,03,18,17,57,8.30
2009,03,18,17,58,8.30
2009,03,18,17,59,8.30
2009,03,18,18,00,8.30
2009,03,18,18,01,8.30
2009,03,18,18,02,8.20
2009,03,18,18,03,8.20
2009,03,18,18,04,8.20
2009,03,18,18,05,8.20
2009,03,18,18,06,8.20